High Desert Yearling Classic - INVENTORY AND BAND CHECK!

Station: INVENTORY - T Race

Distance: 10 Miles    

Release: 07-Aug-2017 09:30

Weather Release:    Arrival:

Wind at Release:     Wind at Arrival:

Temp at Release: °    Temp at Arrival: °

Lofts: 107

Birds: 365

Clocked: 364

Hand Inventory! AA12978 HERE NOT IN INVENTORY!
Drops Pos Breeder Pigeon Name Color Sex Ent Arrival Speed To Win Eligible
1 House Of Paine - CA 0271-AU17-GSF MLY H 1 10:07:06.00 474.394 00:00:00 Yes
2 Rory Smith - UT 7378-AU17-CDR BB H 1 10:08:12.00 460.733 00:01:06 Yes
3 Utaz Boys/ Jones - UT 0809-AU17-SLI BBWF H 1 10:09:20.00 447.458 00:02:14 Yes
4 Dream Team - VT 0888-AU17-JCZL BB H 1 10:10:31.00 434.389 00:03:25 Yes
5 Rory Smith - UT 7370-AU17-CDR BB H 2 10:10:51.00 430.845 00:03:45 Yes
6 Thunder Birds Breeding/Rodriguez Loft - TX 17846-AU17-WIN Kick-Ass SLTS H 1 10:12:45.00 411.696 00:05:39 Lost
7 A-Lin Loft - ME 14874-US17-IPB BC H 1 10:13:00.00 409.302 00:05:54 Yes
8 Pigeon Village - ID 1233-AU17-IDA BB H 1 10:14:42.00 393.736 00:07:36 Yes
9 Rich Fox Loft - PA 0827-IF17-LVC BC H 1 10:15:54.00 383.442 00:08:48 Yes
10 Joe Zarachowicz - MD 2264-IF17-CCC GRZ H 1 10:18:04.00 366.158 00:10:58 Yes
11 Silver Dollar Loft - CO 0095-AU17-SD BBWF H 1 10:18:06.00 365.904 00:11:00 Yes
12 Papas Loft - ID 20333-AU17-ARPU BB H 1 10:19:33.00 355.197 00:12:27 Yes
13 Ganus Family Loft - IN 0909-AU17-GFL BB H 1 10:19:34.00 355.077 00:12:28 Yes
14 Spring Break Race - UT 11347-US17-IPB BBWF H 1 10:20:09.00 350.947 00:13:03 Yes
15 Joe Zarachowicz - MD 2259-IF17-CCC BB H 2 10:20:37.00 347.712 00:13:31 Lost
16 Dave Naylor - BC 1417-CU17-MTNP BC H 1 10:24:41.00 321.853 00:17:35 Yes
17 Rory Smith - UT 7382-AU17-CDR BB H 3 10:25:11.00 318.937 00:18:05 Yes
18 Rangel/Flores/Fregos - UT 0175-AU17-WFA BC H 1 10:25:35.00 316.642 00:18:29 Yes
19 Arnold Swain - WA 7617-AU17-YAK Yakima Slew BC C 1 10:25:45.00 315.695 00:18:39 Yes
20 El Dorado Lofts Canada - BC 1192-CU17-MTNP BBWF H 1 10:25:47.00 315.506 00:18:41 Yes
21 Thunder Birds Breeding/Rodriguez Loft - TX 17845-AU17-WIN Deadpool BB H 2 10:25:53.00 314.942 00:18:47 Yes
22 Mike Beam - KS 70812-AU17-TOP BLK H 1 10:26:04.00 313.912 00:18:58 Yes
23 Ganus Family Loft - IN 0936-AU17-GFL BB H 2 10:26:16.00 312.796 00:19:10 Yes
24 Rangel/Flores/Fregos - UT 0169-AU17-WFA DCWF H 2 10:27:42.00 305.026 00:20:36 Yes
25 Ganus Family Loft - IN 0479-AU17-GFL BC H 3 10:27:52.00 304.147 00:20:46 Yes
26 Joe Zarachowicz - MD 2241-IF17-CCC BB H 3 10:28:35.00 300.427 00:21:29 Yes
27 Hollywood Lou Loft - FL 0130-AU17-HL BB H 1 10:28:40.00 300.000 00:21:34 Yes
28 Racing Pigeon Mall - WA 0722-AU17-RPM BB H 1 10:30:26.00 291.230 00:23:20 Yes
29 Joe Zarachowicz - MD 2240-IF17-CCC BB H 4 10:30:51.00 289.236 00:23:45 Yes
30 Papas Loft - ID 20335-AU17-ARPU BC H 2 10:31:07.00 287.974 00:24:01 Yes
31 F & D Lofts - AB 17252-AU17-FD BB H 1 10:31:36.00 285.714 00:24:30 Yes
32 Pelican Loft - ID 72741-AU17-ARPU BB H 1 10:32:49.00 280.180 00:25:43 Yes
33 Joe Zarachowicz - MD 2101-IF17-CCC BB H 5 10:32:57.00 279.587 00:25:51 Yes
34 Scott / Morrison - UT 0352-AU17-DWI BB H 1 10:33:50.00 275.718 00:26:44 Yes
35 El Dorado Lofts Canada - BC 1191-CU17-MTNP BB H 2 10:37:16.00 261.645 00:30:10 Lost
36 Bob Lehman - PA 0827-IF17-PGC BB H 1 10:37:44.00 259.843 00:30:38 Yes
37 Utaz Boys/ Jones - UT 0806-AU17-SLI IND H 2 10:38:02.00 258.697 00:30:56 Yes
38 Thunder Birds Breeding/Rodriguez Loft - TX 17848-AU17-WIN Hit girl BB H 3 10:38:10.00 258.191 00:31:04 Yes
39 Steve Beier - AZ 0716-AU17-IDA BB H 1 10:39:38.00 252.753 00:32:32 Yes
40 Racing Pigeon Mall - WA 0727-AU17-RPM BB H 2 10:39:41.00 252.571 00:32:35 Yes
41 Joe Zarachowicz - MD 2169-IF17-CCC BB H 6 10:39:45.00 252.330 00:32:39 Yes
42 Flyhome Loft - CA 26385-AU17-ARPU BB H 1 10:39:51.00 251.969 00:32:45 Lost
43 Marian Taloi - OR 11076-AU17-JEDD BBWF H 1 10:40:00.00 251.429 00:32:54 Yes
44 Rangel/Flores/Fregos - UT 0170-AU17-WFA DCWF H 3 10:40:04.00 251.189 00:32:58 Yes
45 Hammon And Friends - AZ 0599-AU17-DWI BB H 1 10:42:04.00 244.218 00:34:58 Yes
46 Racing Pigeon Mall - WA 0732-AU17-RPM BLK H 3 10:43:40.00 238.914 00:36:34 Yes
47 El Dorado Lofts Canada - BC 1196-CU17-MTNP RC H 3 10:44:18.00 236.878 00:37:12 Yes
48 P N W Challenge - ID 7096-AU17-PNWC "1311-1717" BB H 1 10:44:40.00 235.714 00:37:34 Yes
49 Rich Fox Loft - PA 0880-IF17-LVC BC H 2 10:44:53.00 235.032 00:37:47 Yes
50 Papas Loft - ID 20337-AU17-ARPU BC H 3 10:45:43.00 232.446 00:38:37 Yes
51 Rangel/Flores/Fregos - UT 0174-AU17-WFA BC H 4 10:46:41.00 229.515 00:39:35 Yes
52 High Plains Drifter Loft - CO 0026-AU17-HPDL BBWF H 1 10:47:03.00 228.423 00:39:57 Yes
53 D & L Lofts - BC 1106-CU17-MTNP BB H 1 10:47:18.00 227.684 00:40:12 Yes
54 K/N Loft - HI 40462-AU17-AA BB H 1 10:47:52.00 226.027 00:40:46 Yes
55 Pigeon Village - ID 0886-AU17-IDA BC H 2 10:48:05.00 225.400 00:40:59 Yes
56 Marian Taloi - OR 0211-AU17-OTC BBPD H 2 10:48:30.00 224.204 00:41:24 Lost
57 Rangel/Flores/Fregos - UT 0173-AU17-WFA BCWF H 5 10:48:52.00 223.161 00:41:46 Yes
58 Silver Dollar Loft - CO 0093-AU17-SD BBWF H 2 10:49:05.00 222.550 00:41:59 Yes
59 House Of Paine - CA 0265-AU17-GSF BBPD H 2 10:50:26.00 218.815 00:43:20 Yes
60 Ordonez Loft - CA 0424-AU17-FMT BBPD H 1 10:51:19.00 216.438 00:44:13 Yes
61 Haack Loft - CA 2794-AU17-JEDD BBPD H 1 10:52:00.00 214.634 00:44:54 Yes
62 Lucky Luke - ID 29395-AU17-FOYS BBWF H 1 10:52:14.00 214.025 00:45:08 Lost
62 P N W Challenge - ID 7067-AU17-PNWC "724-360" BBWF H 2 10:52:14.00 214.025 00:45:08 Yes
64 K/N Loft - HI 7531-AU17-UIF BBWF H 2 10:52:23.00 213.635 00:45:17 Yes
65 Bob Lehman - PA 0835-IF17-PGC BB H 2 10:52:38.00 212.989 00:45:32 Yes
66 Aimhigh Loft - CA 0076-AU17-FMT AIM-0076 BC H 1 10:52:51.00 212.432 00:45:45 Yes
67 Rich Fox Loft - PA 0857-IF17-LVC BB H 3 10:53:27.00 210.905 00:46:21 Yes
68 Fly & Criddle - ID 6656-AU17-FOYS MLY H 1 10:53:53.00 209.815 00:46:47 Yes
69 Sam Haslem - UT 7809-AU17-CDR BB H 1 10:53:56.00 209.690 00:46:50 Yes
70 Carlton Kroese-Crazy Al - CO 1286-AU17-HOHC BB H 1 10:54:48.00 207.547 00:47:42 Yes
71 D & L Lofts - BC 1113-CU17-MTNP BB H 2 10:57:11.00 201.873 00:50:05 Yes
72 Racing Pigeon Mall - WA 0723-AU17-RPM BLK H 4 10:59:02.00 197.679 00:51:56 Yes
73 Racing Pigeon Mall - WA 0726-AU17-RPM BB H 5 10:59:33.00 196.538 00:52:27 Yes
74 Mario Rodriguez - AZ 15907-AU17-ARPU BC H 1 11:00:01.00 195.519 00:52:55 Yes
75 Haack Loft - CA 2771-AU17-JEDD BC H 2 11:00:07.00 195.302 00:53:01 Yes
76 Ed Kehl - UT 0389-AU17-WFA WGRZ H 1 11:00:18.00 194.906 00:53:12 Yes
77 Pelican Loft - ID 1783-AU17-PEL BB H 2 11:00:22.00 194.762 00:53:16 Yes
78 Ed Kehl - UT 0387-AU17-WFA DCBK H 2 11:00:31.00 194.439 00:53:25 Yes
79 Ganus Family Loft - IN 0144-AU17-GFL BBWF H 4 11:01:26.00 192.490 00:54:20 Yes
80 Haack Loft - CA 2792-AU17-JEDD MLY H 3 11:01:56.00 191.443 00:54:50 Yes
81 Chick Clayton - ID 0731-AU17-IDA BB H 1 11:02:19.00 190.648 00:55:13 Yes
82 Hollywood Lou Loft - FL 0092-AU17-HL BB H 2 11:02:23.00 190.511 00:55:17 Lost
83 Sam Haslem - UT 7806-AU17-CDR BB H 2 11:03:34.00 188.101 00:56:28 Yes
84 Sam Haslem - UT 7946-AU17-CDR BB H 3 11:03:41.00 187.867 00:56:35 Yes
85 Hammon And Friends - AZ 0594-AU17-DWI BB H 2 11:03:59.00 187.267 00:56:53 Yes
86 Steve Beier - AZ 0719-AU17-IDA BB H 2 11:06:46.00 181.881 00:59:40 Yes
87 F & D Lofts - AB 17253-AU17-FD BC H 2 11:07:57.00 179.684 01:00:51 Yes
88 Ganus Family Loft - IN 0933-AU17-GFL BB H 5 11:08:13.00 179.196 01:01:07 Yes
88 Ganus Family Loft - IN 0921-AU17-GFL RC H 6 11:08:13.00 179.196 01:01:07 Yes
90 P N W Challenge - ID 7099-AU17-PNWC BBPD H 3 11:08:23.00 178.892 01:01:17 Lost
91 Ganus Family Loft - IN 0920-AU17-GFL RC H 7 11:08:32.00 178.620 01:01:26 Yes
92 Mario Rodriguez - AZ 15908-AU17-ARPU BB H 2 11:08:34.00 178.559 01:01:28 Lost
92 Best Loft - IL 1621-AU17-CHI BBWF H 1 11:08:34.00 178.559 01:01:28 Yes
94 Jones Boys - UT 1167-AU17-SLI BC H 1 11:08:50.00 178.078 01:01:44 Yes
95 Arendonk West - CA 26835-AU17-AA DC H 1 11:09:02.00 177.718 01:01:56 Lost
96 Dick & Marty Lee - ID 1050-AU17-IDA DC H 1 11:09:09.00 177.509 01:02:03 Yes
97 Jones Boys - UT 1180-AU17-SLI BB H 2 11:09:21.00 177.151 01:02:15 Yes
98 Sam Haslem - UT 7802-AU17-CDR BC H 4 11:09:31.00 176.855 01:02:25 Yes
98 Stephen Brothers - CA 0764-AU17-COM DNCK H 1 11:09:31.00 176.855 01:02:25 Yes
100 King Of The Hill - AZ 0994-AU17-PSC BC H 1 11:09:38.00 176.648 01:02:32 Yes

There are 527 bird records

Note: These Race Results are unofficial and subject to change until verified by the Race Committee and declared final.

Click for forecast!